STARLINK-34055, 63819

Orbit data source: Space-Track

STARLINK-34055, 63819 is a payload satellite owned by SpaceX/Seattle (US) in LEO that was launched on Sun, 04 May 2025 UTC via an FALCON 9 launch vehicle from the Air Force Eastern Test Range (AFETR). Payload-class satellites include a variety of spacecraft equipped with specific instruments for various scientific and technological missions. These include communications satellites like Starlink; space stations such as the ISS; scientific satellites like the Hubble; Earth observation satellites from companies like Planet Labs, Umbra, and HawkEye 360; GPS; miniature CubeSats for education and research; and military/defense satellites.

Loading next visibility...
Identifier
63819, 2025-092R
Orbit
LEO
Last TLE update
18 hours ago
Origin
Manufacturer
SpaceX/Seattle
Mission
Operational spacecraft
Bus & Motor
STARLINK V2MO, Unknown motor
Mass
575 kg wet, ~530 kg dry
Launch date (UTC)
2025-05-04 (1 week ago)
Launch vehicle
FALCON 9
Launch site
Air Force Eastern Test Range (AFETR)
Object type
Payload
Rocket body
Debris
Shape & HBR
Unknown
Radar Cross Section
Medium (>0.1 m² and <1 m²)

Expand to show TLE details & history

TLE from 18 hours ago
0 STARLINK-34055
1 63819U 25092R   25132.83335648 -.00924516  00000-0 -33352-2 0  9995
2 63819  43.0008  80.6344 0001522 259.8659 310.2572 15.89747938  2499
Epoch: 2025-05-12T20:00Z
Definitive object data (Epoch: 2025-05-12T20:00:01.999Z)
Latitude
-20.1665°
Longitude
112.83978°
Altitude
306.802 km
Speed
7.725 km/s
True Right ascension
18h 54m 45s
True Declination
-20° 02' 53"
Sunlit
Object was in full shadow at TLE epoch
Visualization TLE readout
Latitude
-28.72408°
Longitude
120.85507°
Altitude
313.689 km
Speed
7.721 km/s
Apparent Right ascension
15h 48m 00s
Apparent Declination
-58° 47' 09"
Sunlit
Object is in full shadow
Visualization observer readout
Local Sidereal Time
22:35:39
Azimuth
220.807° SW
Elevation
-39.112°
Doppler factor
1
Orbital elements
Apogee altitude
306.003 km
Perigee altitude
303.969 km
Semi-major axis
6,683.123 km
Eccentricity
0.0001522
Inclination
43.0008°
RAAN
80.6344°
Arg. of periapsis
259.8659°
True anomaly
310.24389°
Mean anomaly
310.2572°
Eccentric anomaly
310.25054°
Mean motion
3.97259 °/min
BSTAR
-0.0033352
Orbital period
90.62 mins
Loading maneuver chart data...
Loading SW <> Apogee altitude chart data...
Loading historical data...
Loading historical data...
Loading historical data...
Loading historical data...
Loading historical data...
Loading historical data...
Loading historical data...

STARLINK-34055 Visibility forecast

Observer location: undefined°, undefined°

Span
Click to sort rows by Start time (UTC) header in descending order
Start Az.
Max El. time (UTC)
Max El. Az.
Max El.
End time (UTC)
End Az.
5 mins2025-05-14 00:00:46.978Z230.45° WSW2025-05-14 00:03:46.978Z118.21° SE32.396°2025-05-14 00:05:46.978Z80.316° E
|